| time (UTC) | temp C | wind direction | speed KPH | gust KPH | rain 1hr cm | rain 24hr cm | rain mn cm | humidity % | barometer mb |
| 20260505035523 | 16 | 167 | 1.6 | 1.6 | 0.00 | 0.00 | 0.00 | 40 | 1006.1 |
| 20260505034541 | 16 | 169 | 0.0 | 1.6 | 0.00 | 0.00 | 0.00 | 40 | 1005.8 |
| 20260505033540 | 17 | 171 | 0.0 | 1.6 | 0.00 | 0.00 | 0.00 | 39 | 1005.8 |
| 20260505032555 | 17 | 185 | 1.6 | 1.6 | 0.00 | 0.00 | 0.00 | 38 | 1005.5 |
| 20260505031532 | 17 | 184 | 1.6 | 1.6 | 0.00 | 0.00 | 0.00 | 38 | 1005.5 |
| 20260505030529 | 17 | 184 | 0.0 | 1.6 | 0.00 | 0.00 | 0.00 | 39 | 1005.4 |
| 20260505025526 | 17 | 191 | 0.0 | 1.6 | 0.00 | 0.00 | 0.00 | 38 | 1005.4 |
| 20260505024523 | 17 | 173 | 1.6 | 4.8 | 0.00 | 0.00 | 0.00 | 38 | 1005.3 |
| 20260505023540 | 18 | 186 | 0.0 | 1.6 | 0.00 | 0.00 | 0.00 | 36 | 1005.2 |
| 20260505022537 | 18 | 179 | 0.0 | 1.6 | 0.00 | 0.00 | 0.00 | 35 | 1005.1 |
| 20260505021534 | 20 | 172 | 1.6 | 3.2 | 0.00 | 0.00 | 0.00 | 35 | 1005.0 |
| 20260505020531 | 20 | 188 | 1.6 | 3.2 | 0.00 | 0.00 | 0.00 | 34 | 1005.0 |
| 20260505015528 | 21 | 184 | 1.6 | 4.8 | 0.00 | 0.00 | 0.00 | 32 | 1004.9 |
| 20260505014526 | 21 | 187 | 1.6 | 6.4 | 0.00 | 0.00 | 0.00 | 31 | 1004.8 |
| 20260505013523 | 21 | 199 | 3.2 | 6.4 | 0.00 | 0.00 | 0.00 | 31 | 1004.8 |
| 20260505012541 | 22 | 186 | 4.8 | 11.3 | 0.00 | 0.00 | 0.00 | 29 | 1004.9 |
| 20260505011543 | 22 | 185 | 3.2 | 11.3 | 0.00 | 0.00 | 0.00 | 29 | 1005.0 |
| 20260505010535 | 22 | 229 | 8.0 | 17.7 | 0.00 | 0.00 | 0.00 | 28 | 1004.9 |
| 20260505005614 | 22 | 232 | 8.0 | 14.5 | 0.00 | 0.00 | 0.00 | 28 | 1005.1 |
| 20260505004530 | 23 | 222 | 6.4 | 12.9 | 0.00 | 0.00 | 0.00 | 27 | 1005.1 |
| 20260505003527 | 22 | 225 | 8.0 | 14.5 | 0.00 | 0.00 | 0.00 | 28 | 1005.1 |
| 20260505002525 | 22 | 234 | 9.7 | 16.1 | 0.00 | 0.00 | 0.00 | 29 | 1005.3 |
| 20260505001542 | 22 | 239 | 12.9 | 22.5 | 0.00 | 0.00 | 0.00 | 29 | 1005.3 |
| 20260505000541 | 22 | 234 | 11.3 | 22.5 | 0.00 | 0.00 | 0.00 | 28 | 1005.5 |
| 20260504235555 | 22 | 226 | 8.0 | 14.5 | 0.00 | 0.00 | 0.00 | 29 | 1005.5 |
| 20260504234552 | 22 | 230 | 9.7 | 17.7 | 0.00 | 0.00 | 0.00 | 30 | 1005.5 |
| 20260504233530 | 22 | 234 | 12.9 | 22.5 | 0.00 | 0.00 | 0.00 | 28 | 1005.4 |
| 20260504232607 | 22 | 234 | 12.9 | 24.1 | 0.00 | 0.00 | 0.00 | 31 | 1005.5 |
| 20260504231543 | 22 | 238 | 16.1 | 24.1 | 0.00 | 0.00 | 0.00 | 30 | 1005.5 |
| 20260504230540 | 22 | 235 | 14.5 | 24.1 | 0.00 | 0.00 | 0.00 | 30 | 1005.5 |
| 20260504225620 | 22 | 227 | 14.5 | 25.7 | 0.00 | 0.00 | 0.00 | 32 | 1005.4 |
| 20260504224534 | 25 | 235 | 9.7 | 20.9 | 0.00 | 0.00 | 0.00 | 22 | 1005.4 |
| 20260504223553 | 24 | 231 | 8.0 | 12.9 | 0.00 | 0.00 | 0.00 | 22 | 1005.3 |
| 20260504222549 | 24 | 233 | 11.3 | 14.5 | 0.00 | 0.00 | 0.00 | 22 | 1005.4 |
| 20260504221531 | 25 | 230 | 11.3 | 17.7 | 0.00 | 0.00 | 0.00 | 23 | 1005.5 |
| 20260504220523 | 25 | 237 | 3.2 | 6.4 | 0.00 | 0.00 | 0.00 | 20 | 1005.7 |
| 20260504215540 | 25 | 213 | 4.8 | 6.4 | 0.00 | 0.00 | 0.00 | 21 | 1005.8 |
| 20260504214538 | 25 | 233 | 3.2 | 6.4 | 0.00 | 0.00 | 0.00 | 21 | 1006.0 |
| 20260504213535 | 26 | 233 | 3.2 | 6.4 | 0.00 | 0.00 | 0.00 | 21 | 1006.1 |
| 20260504212533 | 26 | 197 | 1.6 | 3.2 | 0.00 | 0.00 | 0.00 | 20 | 1006.3 |
| 20260504211529 | 25 | 229 | 3.2 | 4.8 | 0.00 | 0.00 | 0.00 | 22 | 1006.3 |
| 20260504210527 | 26 | 237 | 4.8 | 6.4 | 0.00 | 0.00 | 0.00 | 23 | 1006.6 |
| 20260504205524 | 25 | 54 | 1.6 | 3.2 | 0.00 | 0.00 | 0.00 | 20 | 1006.6 |
| 20260504204541 | 25 | 231 | 4.8 | 11.3 | 0.00 | 0.00 | 0.00 | 23 | 1006.8 |
| 20260504203538 | 25 | 302 | 3.2 | 9.7 | 0.00 | 0.00 | 0.00 | 21 | 1006.8 |
| 20260504202535 | 25 | 259 | 3.2 | 6.4 | 0.00 | 0.00 | 0.00 | 21 | 1007.0 |
| 20260504201532 | 23 | 246 | 4.8 | 12.9 | 0.00 | 0.00 | 0.00 | 23 | 1007.1 |
| 20260504200529 | 24 | 244 | 6.4 | 12.9 | 0.00 | 0.00 | 0.00 | 24 | 1007.3 |
| 20260504195526 | 24 | 232 | 4.8 | 12.9 | 0.00 | 0.00 | 0.00 | 25 | 1007.2 |
| 20260504194523 | 23 | 199 | 3.2 | 9.7 | 0.00 | 0.00 | 0.00 | 25 | 1007.4 |
| 20260504193540 | 23 | 239 | 6.4 | 14.5 | 0.00 | 0.00 | 0.00 | 26 | 1007.7 |
| 20260504192618 | 23 | 210 | 3.2 | 9.7 | 0.00 | 0.00 | 0.00 | 26 | 1007.7 |
| 20260504191554 | 23 | 210 | 3.2 | 6.4 | 0.00 | 0.00 | 0.00 | 24 | 1007.7 |
| 20260504190530 | 23 | 237 | 3.2 | 14.5 | 0.00 | 0.00 | 0.00 | 25 | 1007.9 |
| 20260504185527 | 23 | 230 | 6.4 | 12.9 | 0.00 | 0.00 | 0.00 | 26 | 1008.0 |
| 20260504184525 | 23 | 236 | 6.4 | 14.5 | 0.00 | 0.00 | 0.00 | 25 | 1008.1 |
| 20260504183540 | 22 | 237 | 6.4 | 12.9 | 0.00 | 0.00 | 0.00 | 26 | 1008.2 |
| 20260504182559 | 23 | 204 | 4.8 | 11.3 | 0.00 | 0.00 | 0.00 | 26 | 1008.4 |
| 20260504181535 | 23 | 202 | 3.2 | 9.7 | 0.00 | 0.00 | 0.00 | 27 | 1008.6 |
| 20260504180532 | 22 | 229 | 4.8 | 11.3 | 0.00 | 0.00 | 0.00 | 28 | 1008.8 |
| 20260504175530 | 22 | 202 | 1.6 | 4.8 | 0.00 | 0.00 | 0.00 | 28 | 1008.6 |
| 20260504174526 | 22 | 198 | 3.2 | 4.8 | 0.00 | 0.00 | 0.00 | 29 | 1008.8 |
| 20260504173523 | 22 | 196 | 3.2 | 6.4 | 0.00 | 0.00 | 0.00 | 28 | 1008.9 |
| 20260504172601 | 22 | 194 | 3.2 | 6.4 | 0.00 | 0.00 | 0.00 | 29 | 1008.9 |
| 20260504171540 | 22 | 190 | 3.2 | 6.4 | 0.00 | 0.00 | 0.00 | 31 | 1008.9 |
| 20260504170534 | 21 | 213 | 3.2 | 9.7 | 0.00 | 0.00 | 0.00 | 31 | 1009.1 |
| 20260504150625 | 17 | 143 | 3.2 | 6.4 | 0.00 | 0.00 | 0.00 | 36 | 1009.3 |
| 20260504140603 | 13 | 116 | 3.2 | 4.8 | 0.00 | 0.00 | 0.00 | 42 | 1009.4 |
| 20260504130543 | 10 | 128 | 3.2 | 3.2 | 0.00 | 0.00 | 0.00 | 47 | 1009.3 |
| 20260504110528 | 12 | 106 | 3.2 | 4.8 | 0.00 | 0.00 | 0.00 | 41 | 1009.4 |
| 20260504100611 | 10 | 138 | 1.6 | 3.2 | 0.00 | 0.00 | 0.00 | 47 | 1009.1 |
| 20260504081539 | 11 | 167 | 1.6 | 1.6 | 0.00 | 0.00 | 0.00 | 56 | 1008.4 |
| 20260504080536 | 12 | 167 | 0.0 | 1.6 | 0.00 | 0.00 | 0.00 | 52 | 1008.5 |
| 20260504050543 | 16 | 104 | 1.6 | 3.2 | 0.00 | 0.00 | 0.00 | 26 | 1008.7 |
| 20260504045540 | 15 | 107 | 3.2 | 3.2 | 0.00 | 0.00 | 0.00 | 30 | 1008.8 |
| 20260504044537 | 16 | 143 | 1.6 | 1.6 | 0.00 | 0.00 | 0.00 | 31 | 1008.9 |
| 20260504043535 | 16 | 144 | 3.2 | 3.2 | 0.00 | 0.00 | 0.00 | 32 | 1008.8 |
| 20260504042532 | 16 | 141 | 3.2 | 3.2 | 0.00 | 0.00 | 0.00 | 30 | 1008.8 |
| 20260504041528 | 17 | 139 | 3.2 | 3.2 | 0.00 | 0.00 | 0.00 | 28 | 1008.9 |
| 20260504040526 | 17 | 127 | 1.6 | 1.6 | 0.00 | 0.00 | 0.00 | 28 | 1009.0 |